Time,TemperatureF,DewpointF,PressureIn,WindDirection,WindDirectionDegrees,WindSpeedMPH,WindSpeedGustMPH,Humidity,HourlyPrecipIn,Conditions,Clouds,dailyrainin,SoftwareType,DateUTC
2013-06-05 00:44:00,47.0,41.0,29.97,SW,225,2.0,2.0,81,0.00,,,0.00,TxWx,2013-06-05 04:44:00,
2013-06-05 00:50:00,47.0,41.0,29.97,SSW,202,0.0,0.0,81,0.00,,,0.00,TxWx,2013-06-05 04:50:00,
2013-06-05 00:55:00,47.0,41.0,29.97,South,180,0.0,0.0,81,0.00,,,0.00,TxWx,2013-06-05 04:55:00,
2013-06-05 01:00:00,47.0,41.0,29.97,NNW,337,1.0,2.0,81,0.00,,,0.00,TxWx,2013-06-05 05:00:00,
2013-06-05 01:05:00,46.0,40.0,29.97,SSW,202,0.0,0.0,81,0.00,,,0.00,TxWx,2013-06-05 05:05:00,
2013-06-05 01:11:00,46.0,40.0,29.97,SW,225,1.0,1.0,81,0.00,,,0.00,TxWx,2013-06-05 05:11:00,
2013-06-05 01:17:00,46.0,41.0,29.96,SSW,202,1.0,2.0,82,0.00,,,0.00,TxWx,2013-06-05 05:17:00,
2013-06-05 01:22:00,46.0,41.0,29.96,SSW,202,1.0,1.0,82,0.00,,,0.00,TxWx,2013-06-05 05:22:00,
2013-06-05 01:27:00,45.0,40.0,29.96,SSW,202,0.0,0.0,82,0.00,,,0.00,TxWx,2013-06-05 05:27:00,
2013-06-05 01:32:00,45.0,40.0,29.97,SSW,202,0.0,0.0,83,0.00,,,0.00,TxWx,2013-06-05 05:32:00,
2013-06-05 01:37:00,45.0,40.0,29.97,SSW,202,1.0,1.0,83,0.00,,,0.00,TxWx,2013-06-05 05:37:00,
2013-06-05 01:43:00,45.0,40.0,29.97,SW,225,2.0,2.0,84,0.00,,,0.00,TxWx,2013-06-05 05:43:00,
2013-06-05 01:48:00,45.0,41.0,29.97,SW,225,1.0,1.0,85,0.00,,,0.00,TxWx,2013-06-05 05:48:00,
2013-06-05 01:53:00,45.0,41.0,29.97,SSW,202,1.0,1.0,86,0.00,,,0.00,TxWx,2013-06-05 05:53:00,
2013-06-05 01:58:00,44.0,40.0,29.97,WSW,247,1.0,1.0,86,0.00,,,0.00,TxWx,2013-06-05 05:58:00,
2013-06-05 02:04:00,44.0,40.0,29.97,South,180,0.0,0.0,86,0.00,,,0.00,TxWx,2013-06-05 06:04:00,
2013-06-05 02:09:00,44.0,40.0,29.97,SSW,202,0.0,0.0,86,0.00,,,0.00,TxWx,2013-06-05 06:09:00,
2013-06-05 02:14:00,44.0,40.0,29.97,South,180,0.0,0.0,86,0.00,,,0.00,TxWx,2013-06-05 06:14:00,
2013-06-05 02:19:00,43.0,39.0,29.97,SSW,202,0.0,0.0,86,0.00,,,0.00,TxWx,2013-06-05 06:19:00,
2013-06-05 02:25:00,43.0,39.0,29.97,SSW,202,1.0,1.0,87,0.00,,,0.00,TxWx,2013-06-05 06:25:00,
2013-06-05 02:30:00,43.0,39.0,29.97,SSW,202,0.0,1.0,87,0.00,,,0.00,TxWx,2013-06-05 06:30:00,
2013-06-05 02:35:00,43.0,39.0,29.97,South,180,0.0,0.0,87,0.00,,,0.00,TxWx,2013-06-05 06:35:00,
2013-06-05 02:40:00,42.0,38.0,29.97,SSW,202,0.0,0.0,87,0.00,,,0.00,TxWx,2013-06-05 06:40:00,
2013-06-05 02:45:00,42.0,39.0,29.98,SSW,202,0.0,0.0,88,0.00,,,0.00,TxWx,2013-06-05 06:45:00,
2013-06-05 02:51:00,42.0,39.0,29.98,South,180,0.0,0.0,88,0.00,,,0.00,TxWx,2013-06-05 06:51:00,
2013-06-05 02:56:00,42.0,39.0,29.98,SW,225,0.0,0.0,88,0.00,,,0.00,TxWx,2013-06-05 06:56:00,
2013-06-05 03:01:00,42.0,39.0,29.98,SSW,202,0.0,0.0,88,0.00,,,0.00,TxWx,2013-06-05 07:01:00,
2013-06-05 03:07:00,42.0,39.0,29.98,SSW,202,0.0,0.0,89,0.00,,,0.00,TxWx,2013-06-05 07:07:00,
2013-06-05 03:12:00,42.0,39.0,29.98,SSW,202,0.0,0.0,89,0.00,,,0.00,TxWx,2013-06-05 07:12:00,
2013-06-05 03:17:00,41.0,38.0,29.98,SSW,202,0.0,0.0,89,0.00,,,0.00,TxWx,2013-06-05 07:17:00,
2013-06-05 03:22:00,41.0,38.0,29.98,SSW,202,0.0,0.0,90,0.00,,,0.00,TxWx,2013-06-05 07:22:00,
2013-06-05 03:28:00,41.0,38.0,29.98,SSW,202,0.0,0.0,90,0.00,,,0.00,TxWx,2013-06-05 07:28:00,
2013-06-05 03:33:00,41.0,38.0,29.99,South,180,0.0,0.0,90,0.00,,,0.00,TxWx,2013-06-05 07:33:00,
2013-06-05 03:38:00,41.0,38.0,29.99,SW,225,0.0,0.0,90,0.00,,,0.00,TxWx,2013-06-05 07:38:00,
2013-06-05 03:43:00,40.0,37.0,29.99,SW,225,3.0,3.0,90,0.00,,,0.00,TxWx,2013-06-05 07:43:00,
2013-06-05 03:48:00,40.0,38.0,30.00,NNW,337,1.0,2.0,91,0.00,,,0.00,TxWx,2013-06-05 07:48:00,
2013-06-05 03:53:00,40.0,38.0,30.00,SSW,202,0.0,1.0,91,0.00,,,0.00,TxWx,2013-06-05 07:53:00,
2013-06-05 03:59:00,40.0,38.0,30.00,South,180,0.0,0.0,91,0.00,,,0.00,TxWx,2013-06-05 07:59:00,
2013-06-05 04:04:00,40.0,38.0,30.00,South,180,0.0,0.0,91,0.00,,,0.00,TxWx,2013-06-05 08:04:00,
2013-06-05 04:09:00,40.0,38.0,30.00,South,180,0.0,0.0,92,0.00,,,0.00,TxWx,2013-06-05 08:09:00,
2013-06-05 04:14:00,40.0,38.0,30.00,South,180,0.0,0.0,92,0.00,,,0.00,TxWx,2013-06-05 08:14:00,
2013-06-05 04:20:00,39.0,37.0,30.00,South,180,1.0,1.0,92,0.00,,,0.00,TxWx,2013-06-05 08:20:00,
2013-06-05 04:25:00,39.0,37.0,30.00,SW,225,3.0,3.0,92,0.00,,,0.00,TxWx,2013-06-05 08:25:00,
2013-06-05 04:30:00,39.0,37.0,30.00,West,270,1.0,1.0,93,0.00,,,0.00,TxWx,2013-06-05 08:30:00,
2013-06-05 04:35:00,39.0,37.0,30.00,South,180,0.0,0.0,93,0.00,,,0.00,TxWx,2013-06-05 08:35:00,
2013-06-05 04:40:00,39.0,37.0,30.00,South,180,0.0,0.0,93,0.00,,,0.00,TxWx,2013-06-05 08:40:00,
2013-06-05 04:46:00,39.0,37.0,30.00,South,180,0.0,0.0,93,0.00,,,0.00,TxWx,2013-06-05 08:46:00,
2013-06-05 04:51:00,39.0,37.0,30.01,SSW,202,0.0,0.0,93,0.00,,,0.00,TxWx,2013-06-05 08:51:00,
2013-06-05 04:56:00,39.0,37.0,30.01,SSW,202,0.0,0.0,93,0.00,,,0.00,TxWx,2013-06-05 08:56:00,
2013-06-05 05:01:00,39.0,37.0,30.01,SSW,202,0.0,0.0,93,0.00,,,0.00,TxWx,2013-06-05 09:01:00,
2013-06-05 05:06:00,39.0,37.0,30.01,SSW,202,0.0,0.0,93,0.00,,,0.00,TxWx,2013-06-05 09:06:00,
2013-06-05 05:12:00,39.0,37.0,30.01,SSW,202,0.0,0.0,93,0.00,,,0.00,TxWx,2013-06-05 09:12:00,
2013-06-05 05:17:00,39.0,37.0,30.01,SSW,202,0.0,0.0,94,0.00,,,0.00,TxWx,2013-06-05 09:17:00,
2013-06-05 05:22:00,39.0,37.0,30.01,South,180,0.0,0.0,94,0.00,,,0.00,TxWx,2013-06-05 09:22:00,
2013-06-05 05:28:00,39.0,37.0,30.02,SSW,202,0.0,0.0,94,0.00,,,0.00,TxWx,2013-06-05 09:28:00,
2013-06-05 05:33:00,39.0,37.0,30.02,SSW,202,1.0,1.0,94,0.00,,,0.00,TxWx,2013-06-05 09:33:00,
2013-06-05 05:38:00,39.0,37.0,30.02,SSW,202,0.0,1.0,94,0.00,,,0.00,TxWx,2013-06-05 09:38:00,
2013-06-05 05:43:00,39.0,37.0,30.02,SSW,202,0.0,0.0,94,0.00,,,0.00,TxWx,2013-06-05 09:43:00,
2013-06-05 05:48:00,39.0,37.0,30.02,South,180,0.0,0.0,94,0.00,,,0.00,TxWx,2013-06-05 09:48:00,
2013-06-05 05:54:00,39.0,37.0,30.02,SSW,202,0.0,0.0,94,0.00,,,0.00,TxWx,2013-06-05 09:54:00,
2013-06-05 05:59:00,39.0,38.0,30.02,South,180,0.0,0.0,95,0.00,,,0.00,TxWx,2013-06-05 09:59:00,
2013-06-05 06:04:00,39.0,38.0,30.02,SSW,202,1.0,1.0,95,0.00,,,0.00,TxWx,2013-06-05 10:04:00,
2013-06-05 06:10:00,39.0,38.0,30.02,SW,225,1.0,1.0,95,0.00,,,0.00,TxWx,2013-06-05 10:10:00,
2013-06-05 06:15:00,39.0,38.0,30.02,SSW,202,1.0,1.0,95,0.00,,,0.00,TxWx,2013-06-05 10:15:00,
2013-06-05 06:20:00,39.0,38.0,30.03,South,180,1.0,1.0,96,0.00,,,0.00,TxWx,2013-06-05 10:20:00,
2013-06-05 06:25:00,40.0,39.0,30.03,South,180,1.0,1.0,96,0.00,,,0.00,TxWx,2013-06-05 10:25:00,
2013-06-05 06:30:00,40.0,39.0,30.03,SSE,157,1.0,1.0,96,0.00,,,0.00,TxWx,2013-06-05 10:30:00,
2013-06-05 06:36:00,40.0,39.0,30.03,SSW,202,0.0,0.0,96,0.00,,,0.00,TxWx,2013-06-05 10:36:00,
2013-06-05 06:41:00,40.0,39.0,30.03,South,180,0.0,0.0,96,0.00,,,0.00,TxWx,2013-06-05 10:41:00,
2013-06-05 06:46:00,40.0,39.0,30.03,SSW,202,0.0,0.0,96,0.00,,,0.00,TxWx,2013-06-05 10:46:00,
2013-06-05 06:52:00,40.0,39.0,30.03,ESE,112,0.0,0.0,96,0.00,,,0.00,TxWx,2013-06-05 10:52:00,
2013-06-05 06:57:00,40.0,39.0,30.04,South,180,0.0,0.0,97,0.00,,,0.00,TxWx,2013-06-05 10:57:00,
2013-06-05 07:03:00,41.0,40.0,30.04,South,180,0.0,0.0,97,0.00,,,0.00,TxWx,2013-06-05 11:03:00,
2013-06-05 07:08:00,41.0,40.0,30.04,SSW,202,0.0,0.0,97,0.00,,,0.00,TxWx,2013-06-05 11:08:00,
2013-06-05 07:13:00,42.0,41.0,30.04,SE,135,1.0,1.0,97,0.00,,,0.00,TxWx,2013-06-05 11:13:00,
2013-06-05 07:18:00,42.0,41.0,30.04,South,180,1.0,1.0,97,0.00,,,0.00,TxWx,2013-06-05 11:18:00,
2013-06-05 07:24:00,43.0,42.0,30.04,SSW,202,1.0,1.0,97,0.00,,,0.00,TxWx,2013-06-05 11:24:00,
2013-06-05 07:29:00,43.0,42.0,30.04,WSW,247,1.0,1.0,97,0.00,,,0.00,TxWx,2013-06-05 11:29:00,
2013-06-05 07:34:00,43.0,42.0,30.04,SSW,202,1.0,1.0,97,0.00,,,0.00,TxWx,2013-06-05 11:34:00,
2013-06-05 07:39:00,44.0,43.0,30.04,South,180,0.0,0.0,98,0.00,,,0.00,TxWx,2013-06-05 11:39:00,
2013-06-05 07:44:00,44.0,43.0,30.04,South,180,1.0,1.0,98,0.00,,,0.00,TxWx,2013-06-05 11:44:00,
2013-06-05 07:49:00,45.0,45.0,30.04,WSW,247,2.0,3.0,99,0.00,,,0.00,TxWx,2013-06-05 11:49:00,
2013-06-05 07:55:00,46.0,46.0,30.04,SSW,202,2.0,2.0,99,0.00,,,0.00,TxWx,2013-06-05 11:55:00,
2013-06-05 08:00:00,46.0,46.0,30.04,South,180,1.0,1.0,99,0.00,,,0.00,TxWx,2013-06-05 12:00:00,
2013-06-05 08:05:00,47.0,47.0,30.04,SSE,157,1.0,3.0,99,0.00,,,0.00,TxWx,2013-06-05 12:05:00,
2013-06-05 08:10:00,48.0,48.0,30.04,South,180,0.0,1.0,99,0.00,,,0.00,TxWx,2013-06-05 12:10:00,
2013-06-05 08:16:00,49.0,48.0,30.04,West,270,2.0,3.0,98,0.00,,,0.00,TxWx,2013-06-05 12:16:00,
2013-06-05 08:21:00,49.0,48.0,30.04,North,0,3.0,3.0,97,0.00,,,0.00,TxWx,2013-06-05 12:21:00,
2013-06-05 08:26:00,50.0,49.0,30.04,WNW,292,4.0,5.0,95,0.00,,,0.00,TxWx,2013-06-05 12:26:00,
2013-06-05 08:31:00,51.0,49.0,30.05,West,270,1.0,1.0,93,0.00,,,0.00,TxWx,2013-06-05 12:31:00,
2013-06-05 08:36:00,52.0,50.0,30.05,SW,225,5.0,5.0,92,0.00,,,0.00,TxWx,2013-06-05 12:36:00,
2013-06-05 08:41:00,52.0,49.0,30.04,WNW,292,3.0,3.0,88,0.00,,,0.00,TxWx,2013-06-05 12:41:00,
2013-06-05 08:46:00,53.0,48.0,30.04,South,180,1.0,1.0,85,0.00,,,0.00,TxWx,2013-06-05 12:46:00,
2013-06-05 08:52:00,53.0,47.0,30.04,WSW,247,3.0,3.0,79,0.00,,,0.00,TxWx,2013-06-05 12:52:00,
2013-06-05 08:57:00,54.0,47.0,30.04,WNW,292,4.0,5.0,78,0.00,,,0.00,TxWx,2013-06-05 12:57:00,
2013-06-05 09:02:00,54.0,46.0,30.04,NNW,337,3.0,4.0,74,0.00,,,0.00,TxWx,2013-06-05 13:02:00,
2013-06-05 09:07:00,54.0,45.0,30.04,WSW,247,1.0,2.0,72,0.00,,,0.00,TxWx,2013-06-05 13:07:00,
2013-06-05 09:12:00,55.0,45.0,30.04,SW,225,1.0,3.0,69,0.00,,,0.00,TxWx,2013-06-05 13:12:00,
2013-06-05 09:17:00,55.0,43.0,30.04,SE,135,1.0,1.0,65,0.00,,,0.00,TxWx,2013-06-05 13:17:00,
2013-06-05 09:23:00,56.0,44.0,30.04,SW,225,1.0,2.0,64,0.00,,,0.00,TxWx,2013-06-05 13:23:00,
2013-06-05 09:28:00,57.0,43.0,30.04,SSW,202,1.0,2.0,61,0.00,,,0.00,TxWx,2013-06-05 13:28:00,
2013-06-05 09:34:00,57.0,42.0,30.03,East,90,3.0,4.0,57,0.00,,,0.00,TxWx,2013-06-05 13:34:00,
2013-06-05 09:39:00,58.0,43.0,30.03,WSW,247,2.0,3.0,58,0.00,,,0.00,TxWx,2013-06-05 13:39:00,
2013-06-05 09:44:00,57.0,40.0,30.03,South,180,3.0,3.0,54,0.00,,,0.00,TxWx,2013-06-05 13:44:00,
2013-06-05 09:49:00,58.0,42.0,30.03,NW,315,2.0,2.0,55,0.00,,,0.00,TxWx,2013-06-05 13:49:00,
2013-06-05 09:55:00,58.0,41.0,30.02,SSE,157,2.0,3.0,53,0.00,,,0.00,TxWx,2013-06-05 13:55:00,
2013-06-05 10:00:00,58.0,40.0,30.03,West,270,2.0,3.0,51,0.00,,,0.00,TxWx,2013-06-05 14:00:00,
2013-06-05 10:05:00,59.0,41.0,30.02,SW,225,6.0,6.0,51,0.00,,,0.00,TxWx,2013-06-05 14:05:00,
2013-06-05 10:10:00,58.0,37.0,30.02,NNW,337,7.0,8.0,46,0.00,,,0.00,TxWx,2013-06-05 14:10:00,
2013-06-05 10:15:00,58.0,37.0,30.02,NW,315,5.0,6.0,45,0.00,,,0.00,TxWx,2013-06-05 14:15:00,
2013-06-05 10:20:00,58.0,36.0,30.02,WNW,292,6.0,9.0,45,0.00,,,0.00,TxWx,2013-06-05 14:20:00,
2013-06-05 10:26:00,58.0,37.0,30.02,West,270,7.0,7.0,45,0.00,,,0.00,TxWx,2013-06-05 14:26:00,
2013-06-05 10:31:00,58.0,36.0,30.03,WNW,292,5.0,5.0,44,0.00,,,0.00,TxWx,2013-06-05 14:31:00,
2013-06-05 10:36:00,59.0,37.0,30.03,WNW,292,4.0,5.0,44,0.00,,,0.00,TxWx,2013-06-05 14:36:00,
2013-06-05 10:42:00,59.0,36.0,30.03,NW,315,6.0,8.0,42,0.00,,,0.00,TxWx,2013-06-05 14:42:00,
2013-06-05 10:47:00,59.0,36.0,30.03,West,270,5.0,7.0,43,0.00,,,0.00,TxWx,2013-06-05 14:47:00,
2013-06-05 10:52:00,59.0,37.0,30.02,NW,315,4.0,5.0,44,0.00,,,0.00,TxWx,2013-06-05 14:52:00,
2013-06-05 10:57:00,60.0,36.0,30.02,North,0,3.0,7.0,42,0.00,,,0.00,TxWx,2013-06-05 14:57:00,
2013-06-05 11:02:00,60.0,36.0,30.02,North,0,3.0,6.0,42,0.00,,,0.00,TxWx,2013-06-05 15:02:00,
2013-06-05 11:08:00,60.0,36.0,30.02,WNW,292,4.0,4.0,41,0.00,,,0.00,TxWx,2013-06-05 15:08:00,
2013-06-05 11:13:00,60.0,37.0,30.02,WSW,247,10.0,10.0,42,0.00,,,0.00,TxWx,2013-06-05 15:13:00,
2013-06-05 11:18:00,61.0,37.0,30.01,WNW,292,6.0,9.0,42,0.00,,,0.00,TxWx,2013-06-05 15:18:00,
2013-06-05 11:23:00,61.0,37.0,30.01,SW,225,2.0,5.0,41,0.00,,,0.00,TxWx,2013-06-05 15:23:00,
2013-06-05 11:29:00,61.0,37.0,30.01,NW,315,4.0,5.0,41,0.00,,,0.00,TxWx,2013-06-05 15:29:00,
2013-06-05 11:34:00,61.0,36.0,30.01,NW,315,6.0,6.0,40,0.00,,,0.00,TxWx,2013-06-05 15:34:00,
2013-06-05 11:39:00,61.0,36.0,30.01,West,270,6.0,6.0,40,0.00,,,0.00,TxWx,2013-06-05 15:39:00,
2013-06-05 11:44:00,61.0,37.0,30.01,SSW,202,5.0,7.0,42,0.00,,,0.00,TxWx,2013-06-05 15:44:00,
2013-06-05 11:50:00,62.0,38.0,30.01,WNW,292,6.0,7.0,41,0.00,,,0.00,TxWx,2013-06-05 15:50:00,
2013-06-05 11:55:00,62.0,37.0,30.01,WNW,292,6.0,6.0,40,0.00,,,0.00,TxWx,2013-06-05 15:55:00,
2013-06-05 12:00:00,62.0,37.0,30.01,WSW,247,8.0,9.0,39,0.00,,,0.00,TxWx,2013-06-05 16:00:00,
2013-06-05 12:05:00,62.0,36.0,30.01,WNW,292,6.0,9.0,38,0.00,,,0.00,TxWx,2013-06-05 16:05:00,
2013-06-05 12:11:00,62.0,36.0,30.01,NW,315,5.0,6.0,38,0.00,,,0.00,TxWx,2013-06-05 16:11:00,
2013-06-05 12:16:00,62.0,36.0,30.01,WNW,292,3.0,6.0,38,0.00,,,0.00,TxWx,2013-06-05 16:16:00,
2013-06-05 12:21:00,62.0,35.0,30.01,WSW,247,6.0,7.0,37,0.00,,,0.00,TxWx,2013-06-05 16:21:00,
2013-06-05 12:26:00,63.0,35.0,30.01,SSW,202,5.0,5.0,35,0.00,,,0.00,TxWx,2013-06-05 16:26:00,
2013-06-05 12:31:00,63.0,34.0,30.01,SW,225,6.0,8.0,35,0.00,,,0.00,TxWx,2013-06-05 16:31:00,
2013-06-05 12:37:00,64.0,35.0,30.01,NW,315,5.0,7.0,35,0.00,,,0.00,TxWx,2013-06-05 16:37:00,
2013-06-05 12:42:00,64.0,34.0,30.01,West,270,5.0,9.0,33,0.00,,,0.00,TxWx,2013-06-05 16:42:00,
2013-06-05 12:47:00,64.0,35.0,30.01,ESE,112,5.0,5.0,34,0.00,,,0.00,TxWx,2013-06-05 16:47:00,
2013-06-05 12:52:00,64.0,33.0,30.01,SW,225,4.0,5.0,32,0.00,,,0.00,TxWx,2013-06-05 16:52:00,
2013-06-05 12:58:00,64.0,35.0,30.00,SW,225,7.0,8.0,35,0.00,,,0.00,TxWx,2013-06-05 16:58:00,
2013-06-05 13:03:00,64.0,34.0,30.00,SSW,202,3.0,5.0,33,0.00,,,0.00,TxWx,2013-06-05 17:03:00,
2013-06-05 13:08:00,65.0,36.0,30.00,NW,315,5.0,5.0,34,0.00,,,0.00,TxWx,2013-06-05 17:08:00,
2013-06-05 13:13:00,65.0,34.0,30.00,NW,315,5.0,6.0,31,0.00,,,0.00,TxWx,2013-06-05 17:13:00,
2013-06-05 13:18:00,65.0,34.0,29.99,West,270,4.0,5.0,32,0.00,,,0.00,TxWx,2013-06-05 17:18:00,
2013-06-05 13:24:00,65.0,34.0,29.99,West,270,5.0,5.0,31,0.00,,,0.00,TxWx,2013-06-05 17:24:00,
2013-06-05 13:29:00,64.0,32.0,29.99,SW,225,1.0,2.0,31,0.00,,,0.00,TxWx,2013-06-05 17:29:00,
2013-06-05 13:34:00,65.0,34.0,29.99,SSW,202,3.0,4.0,32,0.00,,,0.00,TxWx,2013-06-05 17:34:00,
2013-06-05 13:39:00,66.0,36.0,29.99,West,270,5.0,5.0,33,0.00,,,0.00,TxWx,2013-06-05 17:39:00,
2013-06-05 13:45:00,66.0,35.0,29.99,North,0,2.0,3.0,32,0.00,,,0.00,TxWx,2013-06-05 17:45:00,
2013-06-05 13:50:00,65.0,34.0,29.99,North,0,6.0,7.0,32,0.00,,,0.00,TxWx,2013-06-05 17:50:00,
2013-06-05 13:55:00,65.0,33.0,29.99,NW,315,7.0,7.0,31,0.00,,,0.00,TxWx,2013-06-05 17:55:00,
2013-06-05 14:00:00,66.0,34.0,29.99,WNW,292,3.0,3.0,31,0.00,,,0.00,TxWx,2013-06-05 18:00:00,
2013-06-05 14:05:00,66.0,35.0,29.98,WNW,292,5.0,5.0,32,0.00,,,0.00,TxWx,2013-06-05 18:05:00,
2013-06-05 14:10:00,66.0,32.0,29.98,NW,315,6.0,6.0,29,0.00,,,0.00,TxWx,2013-06-05 18:10:00,
2013-06-05 14:16:00,66.0,34.0,29.98,WNW,292,5.0,5.0,31,0.00,,,0.00,TxWx,2013-06-05 18:16:00,
2013-06-05 14:21:00,66.0,34.0,29.98,ENE,67,6.0,8.0,30,0.00,,,0.00,TxWx,2013-06-05 18:21:00,
2013-06-05 14:26:00,67.0,35.0,29.98,North,0,4.0,4.0,31,0.00,,,0.00,TxWx,2013-06-05 18:26:00,
2013-06-05 14:31:00,67.0,35.0,29.98,North,0,3.0,5.0,31,0.00,,,0.00,TxWx,2013-06-05 18:31:00,
2013-06-05 14:36:00,66.0,33.0,29.97,SE,135,4.0,4.0,29,0.00,,,0.00,TxWx,2013-06-05 18:36:00,
2013-06-05 14:42:00,67.0,33.0,29.97,NE,45,4.0,4.0,29,0.00,,,0.00,TxWx,2013-06-05 18:42:00,
2013-06-05 14:47:00,67.0,33.0,29.97,North,0,6.0,6.0,29,0.00,,,0.00,TxWx,2013-06-05 18:47:00,
2013-06-05 14:52:00,66.0,32.0,29.97,West,270,8.0,11.0,29,0.00,,,0.00,TxWx,2013-06-05 18:52:00,
2013-06-05 14:57:00,66.0,33.0,29.97,North,0,5.0,6.0,29,0.00,,,0.00,TxWx,2013-06-05 18:57:00,
2013-06-05 15:00:00,50.0,43.0,29.98,South,180,0.0,0.0,77,0.00,,,0.00,TxWx,2013-06-05 19:00:00,
2013-06-05 15:01:00,50.0,43.0,29.98,SSE,157,0.0,0.0,77,0.00,,,0.00,TxWx,2013-06-05 19:01:00,
2013-06-05 15:02:00,50.0,43.0,29.98,SSE,157,0.0,0.0,77,0.00,,,0.00,TxWx,2013-06-05 19:02:00,
2013-06-05 15:03:00,66.0,33.0,29.97,WNW,292,3.0,7.0,29,0.00,,,0.00,TxWx,2013-06-05 19:03:00,
2013-06-05 15:04:00,50.0,43.0,29.98,South,180,0.0,0.0,78,0.00,,,0.00,TxWx,2013-06-05 19:04:00,
2013-06-05 15:05:00,50.0,43.0,29.98,South,180,0.0,0.0,78,0.00,,,0.00,TxWx,2013-06-05 19:05:00,
2013-06-05 15:06:00,50.0,43.0,29.98,SSW,202,0.0,0.0,78,0.00,,,0.00,TxWx,2013-06-05 19:06:00,
2013-06-05 15:07:00,50.0,43.0,29.98,SSW,202,0.0,0.0,78,0.00,,,0.00,TxWx,2013-06-05 19:07:00,
2013-06-05 15:08:00,66.0,33.0,29.97,South,180,2.0,2.0,30,0.00,,,0.00,TxWx,2013-06-05 19:08:00,
2013-06-05 15:10:00,50.0,43.0,29.98,South,180,0.0,0.0,78,0.00,,,0.00,TxWx,2013-06-05 19:10:00,
2013-06-05 15:11:00,50.0,43.0,29.98,SSE,157,0.0,0.0,78,0.00,,,0.00,TxWx,2013-06-05 19:11:00,
2013-06-05 15:12:00,50.0,43.0,29.98,NW,315,0.0,0.0,78,0.00,,,0.00,TxWx,2013-06-05 19:12:00,
2013-06-05 15:13:00,66.0,33.0,29.96,NW,315,4.0,4.0,30,0.00,,,0.00,TxWx,2013-06-05 19:13:00,
2013-06-05 15:14:00,50.0,43.0,29.98,SE,135,0.0,0.0,78,0.00,,,0.00,TxWx,2013-06-05 19:14:00,
2013-06-05 15:15:00,50.0,43.0,29.98,South,180,0.0,0.0,78,0.00,,,0.00,TxWx,2013-06-05 19:15:00,
2013-06-05 15:16:00,50.0,43.0,29.98,South,180,0.0,0.0,78,0.00,,,0.00,TxWx,2013-06-05 19:16:00,
2013-06-05 15:17:00,50.0,43.0,29.98,SSE,157,0.0,0.0,78,0.00,,,0.00,TxWx,2013-06-05 19:17:00,
2013-06-05 15:18:00,65.0,33.0,29.96,WNW,292,3.0,6.0,31,0.00,,,0.00,TxWx,2013-06-05 19:18:00,
2013-06-05 15:19:00,50.0,44.0,29.98,South,180,0.0,0.0,79,0.00,,,0.00,TxWx,2013-06-05 19:19:00,
2013-06-05 15:20:00,50.0,44.0,29.98,South,180,0.0,0.0,79,0.00,,,0.00,TxWx,2013-06-05 19:20:00,
2013-06-05 15:21:00,50.0,44.0,29.98,South,180,0.0,0.0,79,0.00,,,0.00,TxWx,2013-06-05 19:21:00,
2013-06-05 15:22:00,49.0,43.0,29.98,SSW,202,0.0,0.0,79,0.00,,,0.00,TxWx,2013-06-05 19:22:00,
2013-06-05 15:23:00,65.0,33.0,29.96,North,0,5.0,6.0,30,0.00,,,0.00,TxWx,2013-06-05 19:23:00,
2013-06-05 15:24:00,49.0,43.0,29.98,South,180,0.0,0.0,79,0.00,,,0.00,TxWx,2013-06-05 19:24:00,
2013-06-05 15:25:00,49.0,43.0,29.98,SSW,202,0.0,0.0,79,0.00,,,0.00,TxWx,2013-06-05 19:25:00,
2013-06-05 15:26:00,49.0,43.0,29.98,SSW,202,0.0,0.0,79,0.00,,,0.00,TxWx,2013-06-05 19:26:00,
2013-06-05 15:27:00,49.0,43.0,29.98,SSE,157,0.0,0.0,79,0.00,,,0.00,TxWx,2013-06-05 19:27:00,
2013-06-05 15:28:00,65.0,33.0,29.96,WNW,292,5.0,6.0,30,0.00,,,0.00,TxWx,2013-06-05 19:28:00,
2013-06-05 15:29:00,49.0,43.0,29.98,SE,135,0.0,0.0,79,0.00,,,0.00,TxWx,2013-06-05 19:29:00,
2013-06-05 15:30:00,49.0,43.0,29.98,South,180,0.0,0.0,79,0.00,,,0.00,TxWx,2013-06-05 19:30:00,
2013-06-05 15:31:00,49.0,43.0,29.98,South,180,0.0,0.0,79,0.00,,,0.00,TxWx,2013-06-05 19:31:00,
2013-06-05 15:32:00,49.0,43.0,29.98,South,180,0.0,0.0,79,0.00,,,0.00,TxWx,2013-06-05 19:32:00,
2013-06-05 15:33:00,49.0,43.0,29.98,South,180,0.0,0.0,79,0.00,,,0.00,TxWx,2013-06-05 19:33:00,
2013-06-05 15:34:00,65.0,32.0,29.95,WSW,247,5.0,5.0,30,0.00,,,0.00,TxWx,2013-06-05 19:34:00,
2013-06-05 15:36:00,49.0,43.0,29.98,South,180,0.0,0.0,79,0.00,,,0.00,TxWx,2013-06-05 19:36:00,
2013-06-05 15:37:00,49.0,43.0,29.98,South,180,0.0,0.0,79,0.00,,,0.00,TxWx,2013-06-05 19:37:00,
2013-06-05 15:38:00,49.0,43.0,29.98,SSW,202,0.0,0.0,79,0.00,,,0.00,TxWx,2013-06-05 19:38:00,
2013-06-05 15:39:00,65.0,34.0,29.95,WNW,292,6.0,6.0,31,0.00,,,0.00,TxWx,2013-06-05 19:39:00,
2013-06-05 15:41:00,49.0,43.0,29.99,SSW,202,0.0,0.0,80,0.00,,,0.00,TxWx,2013-06-05 19:41:00,
2013-06-05 15:42:00,49.0,43.0,29.99,SSW,202,0.0,0.0,80,0.00,,,0.00,TxWx,2013-06-05 19:42:00,
2013-06-05 15:43:00,48.0,42.0,29.99,SSW,202,0.0,0.0,80,0.00,,,0.00,TxWx,2013-06-05 19:43:00,
2013-06-05 15:44:00,65.0,34.0,29.94,NW,315,2.0,4.0,31,0.00,,,0.00,TxWx,2013-06-05 19:44:00,
2013-06-05 15:46:00,48.0,42.0,29.99,South,180,0.0,1.0,80,0.00,,,0.00,TxWx,2013-06-05 19:46:00,
2013-06-05 15:47:00,48.0,42.0,29.99,SSW,202,1.0,1.0,80,0.00,,,0.00,TxWx,2013-06-05 19:47:00,
2013-06-05 15:49:00,65.0,33.0,29.94,NNW,337,3.0,3.0,31,0.00,,,0.00,TxWx,2013-06-05 19:49:00,
2013-06-05 15:50:00,48.0,42.0,29.99,SSW,202,1.0,1.0,81,0.00,,,0.00,TxWx,2013-06-05 19:50:00,
2013-06-05 15:51:00,48.0,42.0,29.99,SSW,202,1.0,1.0,81,0.00,,,0.00,TxWx,2013-06-05 19:51:00,
2013-06-05 15:52:00,48.0,42.0,29.99,SW,225,1.0,1.0,81,0.00,,,0.00,TxWx,2013-06-05 19:52:00,
2013-06-05 15:54:00,48.0,42.0,29.99,SSW,202,0.0,1.0,81,0.00,,,0.00,TxWx,2013-06-05 19:54:00,
2013-06-05 15:55:00,65.0,33.0,29.94,North,0,5.0,5.0,31,0.00,,,0.00,TxWx,2013-06-05 19:55:00,
2013-06-05 15:56:00,48.0,42.0,29.99,SSW,202,0.0,0.0,81,0.00,,,0.00,TxWx,2013-06-05 19:56:00,
2013-06-05 15:58:00,48.0,43.0,29.99,SSW,202,0.0,0.0,82,0.00,,,0.00,TxWx,2013-06-05 19:58:00,
2013-06-05 15:59:00,48.0,43.0,29.99,SSW,202,0.0,0.0,82,0.00,,,0.00,TxWx,2013-06-05 19:59:00,
2013-06-05 16:00:00,65.0,33.0,29.94,NNE,22,5.0,5.0,30,0.00,,,0.00,TxWx,2013-06-05 20:00:00,
2013-06-05 16:01:00,48.0,43.0,29.98,SSW,202,0.0,0.0,82,0.00,,,0.00,TxWx,2013-06-05 20:01:00,
2013-06-05 16:05:00,65.0,33.0,29.94,NW,315,4.0,4.0,31,0.00,,,0.00,TxWx,2013-06-05 20:05:00,
2013-06-05 16:06:00,48.0,43.0,29.99,ESE,112,1.0,1.0,82,0.00,,,0.00,TxWx,2013-06-05 20:06:00,
2013-06-05 16:10:00,65.0,34.0,29.94,NNW,337,2.0,2.0,32,0.00,,,0.00,TxWx,2013-06-05 20:10:00,
2013-06-05 16:16:00,65.0,34.0,29.94,NNE,22,6.0,8.0,32,0.00,,,0.00,TxWx,2013-06-05 20:16:00,
2013-06-05 16:21:00,65.0,35.0,29.94,WNW,292,5.0,5.0,33,0.00,,,0.00,TxWx,2013-06-05 20:21:00,
2013-06-05 16:26:00,66.0,36.0,29.94,NNW,337,2.0,3.0,34,0.00,,,0.00,TxWx,2013-06-05 20:26:00,
2013-06-05 16:31:00,65.0,35.0,29.94,WNW,292,5.0,6.0,33,0.00,,,0.00,TxWx,2013-06-05 20:31:00,
2013-06-05 16:36:00,65.0,35.0,29.94,NNW,337,3.0,3.0,33,0.00,,,0.00,TxWx,2013-06-05 20:36:00,
2013-06-05 16:41:00,64.0,34.0,29.94,NW,315,5.0,6.0,33,0.00,,,0.00,TxWx,2013-06-05 20:41:00,
2013-06-05 16:46:00,64.0,35.0,29.95,WNW,292,7.0,7.0,34,0.00,,,0.00,TxWx,2013-06-05 20:46:00,
2013-06-05 16:52:00,64.0,35.0,29.95,West,270,4.0,5.0,34,0.00,,,0.00,TxWx,2013-06-05 20:52:00,
2013-06-05 16:57:00,64.0,35.0,29.95,NW,315,3.0,5.0,34,0.00,,,0.00,TxWx,2013-06-05 20:57:00,
2013-06-05 17:02:00,63.0,35.0,29.95,West,270,4.0,4.0,35,0.00,,,0.00,TxWx,2013-06-05 21:02:00,
2013-06-05 17:07:00,63.0,34.0,29.95,WNW,292,5.0,6.0,35,0.00,,,0.00,TxWx,2013-06-05 21:07:00,
2013-06-05 17:12:00,63.0,35.0,29.95,North,0,4.0,5.0,36,0.00,,,0.00,TxWx,2013-06-05 21:12:00,
2013-06-05 17:18:00,63.0,35.0,29.95,WNW,292,3.0,4.0,36,0.00,,,0.00,TxWx,2013-06-05 21:18:00,
2013-06-05 17:23:00,63.0,35.0,29.95,North,0,3.0,5.0,36,0.00,,,0.00,TxWx,2013-06-05 21:23:00,
2013-06-05 17:28:00,63.0,36.0,29.95,WNW,292,2.0,3.0,37,0.00,,,0.00,TxWx,2013-06-05 21:28:00,
2013-06-05 17:33:00,63.0,36.0,29.95,WNW,292,5.0,5.0,37,0.00,,,0.00,TxWx,2013-06-05 21:33:00,
2013-06-05 17:38:00,63.0,37.0,29.96,WNW,292,3.0,4.0,38,0.00,,,0.00,TxWx,2013-06-05 21:38:00,
2013-06-05 17:44:00,63.0,37.0,29.96,SW,225,1.0,1.0,38,0.00,,,0.00,TxWx,2013-06-05 21:44:00,
2013-06-05 17:49:00,62.0,35.0,29.96,NW,315,5.0,6.0,37,0.00,,,0.00,TxWx,2013-06-05 21:49:00,
2013-06-05 17:54:00,62.0,36.0,29.95,NNW,337,2.0,3.0,38,0.00,,,0.00,TxWx,2013-06-05 21:54:00,
2013-06-05 18:00:00,62.0,36.0,29.95,West,270,2.0,2.0,38,0.00,,,0.00,TxWx,2013-06-05 22:00:00,
2013-06-05 18:05:00,62.0,36.0,29.95,WNW,292,3.0,3.0,38,0.00,,,0.00,TxWx,2013-06-05 22:05:00,
2013-06-05 18:11:00,62.0,36.0,29.95,WNW,292,3.0,4.0,38,0.00,,,0.00,TxWx,2013-06-05 22:11:00,
2013-06-05 18:16:00,62.0,37.0,29.95,SSW,202,2.0,3.0,39,0.00,,,0.00,TxWx,2013-06-05 22:16:00,
2013-06-05 18:21:00,62.0,37.0,29.96,South,180,1.0,3.0,40,0.00,,,0.00,TxWx,2013-06-05 22:21:00,
2013-06-05 18:26:00,62.0,37.0,29.96,NW,315,3.0,4.0,40,0.00,,,0.00,TxWx,2013-06-05 22:26:00,
2013-06-05 18:32:00,62.0,37.0,29.96,NW,315,3.0,3.0,40,0.00,,,0.00,TxWx,2013-06-05 22:32:00,
2013-06-05 18:37:00,61.0,37.0,29.96,WNW,292,1.0,3.0,41,0.00,,,0.00,TxWx,2013-06-05 22:37:00,
2013-06-05 18:42:00,61.0,37.0,29.95,NNW,337,2.0,3.0,41,0.00,,,0.00,TxWx,2013-06-05 22:42:00,
2013-06-05 18:48:00,61.0,37.0,29.95,NNW,337,3.0,5.0,41,0.00,,,0.00,TxWx,2013-06-05 22:48:00,
2013-06-05 18:53:00,61.0,38.0,29.95,WNW,292,3.0,3.0,42,0.00,,,0.00,TxWx,2013-06-05 22:53:00,
2013-06-05 18:58:00,61.0,38.0,29.95,West,270,5.0,5.0,43,0.00,,,0.00,TxWx,2013-06-05 22:58:00,
2013-06-05 19:03:00,61.0,39.0,29.95,SSW,202,1.0,1.0,44,0.00,,,0.00,TxWx,2013-06-05 23:03:00,
2013-06-05 19:09:00,60.0,38.0,29.95,WSW,247,3.0,3.0,45,0.00,,,0.00,TxWx,2013-06-05 23:09:00,
2013-06-05 19:14:00,60.0,39.0,29.95,WSW,247,2.0,3.0,45,0.00,,,0.00,TxWx,2013-06-05 23:14:00,
2013-06-05 19:19:00,60.0,39.0,29.95,SSW,202,2.0,3.0,46,0.00,,,0.00,TxWx,2013-06-05 23:19:00,
2013-06-05 19:24:00,59.0,39.0,29.96,West,270,3.0,3.0,47,0.00,,,0.00,TxWx,2013-06-05 23:24:00,
2013-06-05 19:29:00,59.0,39.0,29.96,SSW,202,1.0,1.0,47,0.00,,,0.00,TxWx,2013-06-05 23:29:00,
2013-06-05 19:34:00,59.0,39.0,29.96,West,270,2.0,2.0,48,0.00,,,0.00,TxWx,2013-06-05 23:34:00,
2013-06-05 19:39:00,59.0,40.0,29.96,SSW,202,1.0,2.0,49,0.00,,,0.00,TxWx,2013-06-05 23:39:00,
2013-06-05 19:45:00,58.0,39.0,29.96,WSW,247,1.0,2.0,50,0.00,,,0.00,TxWx,2013-06-05 23:45:00,
2013-06-05 19:50:00,58.0,40.0,29.96,WSW,247,3.0,3.0,51,0.00,,,0.00,TxWx,2013-06-05 23:50:00,
2013-06-05 19:55:00,58.0,40.0,29.96,WSW,247,3.0,3.0,51,0.00,,,0.00,TxWx,2013-06-05 23:55:00,
2013-06-05 20:00:00,57.0,39.0,29.96,SSW,202,2.0,3.0,52,0.00,,,0.00,TxWx,2013-06-06 00:00:00,
2013-06-05 20:05:00,57.0,40.0,29.97,West,270,3.0,3.0,53,0.00,,,0.00,TxWx,2013-06-06 00:05:00,
2013-06-05 20:10:00,57.0,40.0,29.97,WSW,247,2.0,3.0,53,0.00,,,0.00,TxWx,2013-06-06 00:10:00,
2013-06-05 20:15:00,57.0,40.0,29.97,SSW,202,0.0,1.0,54,0.00,,,0.00,TxWx,2013-06-06 00:15:00,
2013-06-05 20:21:00,56.0,40.0,29.97,SW,225,1.0,2.0,55,0.00,,,0.00,TxWx,2013-06-06 00:21:00,
2013-06-05 20:26:00,56.0,40.0,29.97,WNW,292,2.0,3.0,55,0.00,,,0.00,TxWx,2013-06-06 00:26:00,
2013-06-05 20:31:00,56.0,40.0,29.98,WSW,247,1.0,2.0,56,0.00,,,0.00,TxWx,2013-06-06 00:31:00,
2013-06-05 20:37:00,56.0,40.0,29.98,SW,225,1.0,2.0,56,0.00,,,0.00,TxWx,2013-06-06 00:37:00,
2013-06-05 20:42:00,56.0,41.0,29.98,West,270,3.0,3.0,57,0.00,,,0.00,TxWx,2013-06-06 00:42:00,
2013-06-05 20:47:00,56.0,41.0,29.98,WSW,247,1.0,3.0,57,0.00,,,0.00,TxWx,2013-06-06 00:47:00,
2013-06-05 20:52:00,55.0,40.0,29.98,West,270,1.0,3.0,57,0.00,,,0.00,TxWx,2013-06-06 00:52:00,
2013-06-05 20:58:00,55.0,40.0,29.98,West,270,2.0,2.0,58,0.00,,,0.00,TxWx,2013-06-06 00:58:00,
2013-06-05 21:03:00,55.0,40.0,29.98,SSW,202,0.0,1.0,58,0.00,,,0.00,TxWx,2013-06-06 01:03:00,
2013-06-05 21:08:00,55.0,41.0,29.98,SSW,202,0.0,0.0,59,0.00,,,0.00,TxWx,2013-06-06 01:08:00,
2013-06-05 21:13:00,54.0,40.0,29.98,WSW,247,2.0,3.0,59,0.00,,,0.00,TxWx,2013-06-06 01:13:00,
2013-06-05 21:18:00,54.0,41.0,29.98,West,270,2.0,3.0,62,0.00,,,0.00,TxWx,2013-06-06 01:18:00,
2013-06-05 21:23:00,54.0,41.0,29.98,SSW,202,0.0,0.0,62,0.00,,,0.00,TxWx,2013-06-06 01:23:00,
2013-06-05 21:29:00,54.0,41.0,29.99,West,270,1.0,1.0,63,0.00,,,0.00,TxWx,2013-06-06 01:29:00,
2013-06-05 21:34:00,54.0,42.0,29.99,WSW,247,3.0,3.0,64,0.00,,,0.00,TxWx,2013-06-06 01:34:00,
2013-06-05 21:39:00,54.0,43.0,29.99,SW,225,1.0,1.0,66,0.00,,,0.00,TxWx,2013-06-06 01:39:00,
2013-06-05 21:44:00,54.0,43.0,29.99,SSW,202,0.0,0.0,66,0.00,,,0.00,TxWx,2013-06-06 01:44:00,
2013-06-05 21:49:00,54.0,43.0,29.99,SSW,202,0.0,0.0,66,0.00,,,0.00,TxWx,2013-06-06 01:49:00,
2013-06-05 21:55:00,53.0,42.0,29.99,SSW,202,1.0,1.0,66,0.00,,,0.00,TxWx,2013-06-06 01:55:00,
2013-06-05 22:00:00,53.0,42.0,29.99,SSW,202,1.0,2.0,67,0.00,,,0.00,TxWx,2013-06-06 02:00:00,
2013-06-05 22:05:00,53.0,42.0,30.00,SW,225,1.0,2.0,67,0.00,,,0.00,TxWx,2013-06-06 02:05:00,
2013-06-05 22:10:00,53.0,43.0,30.00,SSW,202,0.0,0.0,68,0.00,,,0.00,TxWx,2013-06-06 02:10:00,
2013-06-05 22:16:00,53.0,43.0,30.00,SSW,202,0.0,0.0,68,0.00,,,0.00,TxWx,2013-06-06 02:16:00,
2013-06-05 22:21:00,53.0,43.0,30.00,SSW,202,0.0,0.0,69,0.00,,,0.00,TxWx,2013-06-06 02:21:00,
2013-06-05 22:27:00,53.0,43.0,30.00,South,180,0.0,0.0,69,0.00,,,0.00,TxWx,2013-06-06 02:27:00,
2013-06-05 22:32:00,53.0,43.0,29.99,SSW,202,0.0,0.0,69,0.00,,,0.00,TxWx,2013-06-06 02:32:00,
2013-06-05 22:37:00,52.0,42.0,30.00,South,180,0.0,0.0,70,0.00,,,0.00,TxWx,2013-06-06 02:37:00,
2013-06-05 22:42:00,52.0,43.0,29.99,South,180,0.0,0.0,71,0.00,,,0.00,TxWx,2013-06-06 02:42:00,
2013-06-05 22:47:00,52.0,43.0,29.99,SSE,157,0.0,0.0,71,0.00,,,0.00,TxWx,2013-06-06 02:47:00,
2013-06-05 22:52:00,52.0,43.0,29.99,SSW,202,0.0,0.0,72,0.00,,,0.00,TxWx,2013-06-06 02:52:00,
2013-06-05 22:58:00,52.0,43.0,29.99,South,180,0.0,0.0,72,0.00,,,0.00,TxWx,2013-06-06 02:58:00,
2013-06-05 23:03:00,52.0,43.0,29.99,South,180,0.0,0.0,73,0.00,,,0.00,TxWx,2013-06-06 03:03:00,
2013-06-05 23:08:00,52.0,44.0,29.99,South,180,0.0,0.0,73,0.00,,,0.00,TxWx,2013-06-06 03:08:00,
2013-06-05 23:13:00,52.0,44.0,29.99,SE,135,0.0,1.0,74,0.00,,,0.00,TxWx,2013-06-06 03:13:00,
2013-06-05 23:18:00,52.0,44.0,29.98,South,180,0.0,0.0,74,0.00,,,0.00,TxWx,2013-06-06 03:18:00,
2013-06-05 23:23:00,52.0,44.0,29.98,South,180,0.0,0.0,75,0.00,,,0.00,TxWx,2013-06-06 03:23:00,
2013-06-05 23:28:00,51.0,43.0,29.98,SSW,202,0.0,0.0,75,0.00,,,0.00,TxWx,2013-06-06 03:28:00,
2013-06-05 23:33:00,51.0,44.0,29.98,South,180,0.0,0.0,76,0.00,,,0.00,TxWx,2013-06-06 03:33:00,
2013-06-05 23:39:00,51.0,44.0,29.98,SSW,202,0.0,0.0,76,0.00,,,0.00,TxWx,2013-06-06 03:39:00,
2013-06-05 23:44:00,51.0,44.0,29.98,South,180,0.0,0.0,76,0.00,,,0.00,TxWx,2013-06-06 03:44:00,
2013-06-05 23:49:00,51.0,44.0,29.98,South,180,0.0,0.0,77,0.00,,,0.00,TxWx,2013-06-06 03:49:00,
2013-06-05 23:55:00,50.0,43.0,29.98,SSW,202,0.0,0.0,77,0.00,,,0.00,TxWx,2013-06-06 03:55:00,